Weather reports worldwide

Advertisment
Gainesville, ga, United States of America (2074504): temperature & dewpoint: 10.09.2019 11:00:00 - 16.09.2019 11:00:00 (EDT)Gainesville, ga, United States of America (2074504): wind speed: 10.09.2019 11:00:00 - 16.09.2019 11:00:00 (EDT)Gainesville, ga, United States of America (2074504): wind direction: 10.09.2019 11:00:00 - 16.09.2019 11:00:00 (EDT)Gainesville, ga, United States of America (2074504): reduced air pressure: 10.09.2019 11:00:00 - 16.09.2019 11:00:00 (EDT)Gainesville, ga, United States of America (2074504): visibility: 10.09.2019 11:00:00 - 16.09.2019 11:00:00 (EDT)Gainesville, ga, United States of America (2074504): precipitation: 10.09.2019 11:00:00 - 16.09.2019 11:00:00 (EDT)
Date & Time tt [°C] td [°C] ff [km/h] ff [kn] dd ppp [hPa] vv [km] rr [mm]
16.09.2019 11:00:00 27,8 20,0 5 3 E 1020,0 16 -
16.09.2019 10:00:00 26,7 20,0 5 3 - 1020,2 16 -
16.09.2019 09:00:00 23,9 21,1 0 0 N 1019,7 16 -
16.09.2019 08:00:00 22,2 21,7 5 3 N 1019,5 11 -
16.09.2019 07:00:00 21,1 21,1 0 0 N 1019,1 13 -
16.09.2019 06:00:00 22,2 21,1 5 3 N 1018,5 15 -
16.09.2019 05:00:00 21,7 21,1 0 0 N 1018,5 15 -
16.09.2019 04:00:00 22,2 21,1 0 0 N 1018,3 16 -
16.09.2019 03:00:00 22,2 21,1 0 0 N 1018,7 16 -
16.09.2019 02:00:00 22,8 21,1 0 0 N 1018,9 16 -
16.09.2019 01:00:00 23,3 21,7 5 3 NE 1018,9 16 -
16.09.2019 00:00:00 23,3 21,1 0 0 N 1019,1 16 -
15.09.2019 23:00:00 24,4 20,6 5 3 NNE 1019,0 16 -
15.09.2019 22:00:00 25,6 20,6 0 0 N 1018,6 16 -
15.09.2019 21:00:00 26,1 21,1 5 3 SSE 1018,3 16 -
15.09.2019 20:00:00 27,8 21,1 9 5 SE 1017,9 16 -
15.09.2019 19:00:00 29,4 21,1 9 5 ESE 1017,8 16 -
15.09.2019 18:00:00 30,6 20,6 8 4 E 1017,8 16 -
15.09.2019 17:00:00 30,6 20,6 8 4 E 1017,8 16 -
15.09.2019 16:00:00 31,1 20,6 11 6 E 1018,3 16 -
15.09.2019 15:00:00 31,7 20,6 0 0 N 1019,5 16 -
15.09.2019 14:00:00 29,4 21,7 0 0 N 1020,4 16 -
15.09.2019 13:00:00 29,4 21,7 8 4 N 1021,1 16 -
15.09.2019 12:00:00 27,8 21,1 8 4 ENE 1021,5 16 -
15.09.2019 11:00:00 26,1 21,7 5 3 - 1021,7 16 -
15.09.2019 10:00:00 25,0 21,7 5 3 ENE 1021,8 16 -
15.09.2019 09:00:00 23,3 21,1 0 0 N 1022,0 16 -
15.09.2019 08:00:00 21,1 20,6 0 0 N 1021,4 13 -
15.09.2019 07:00:00 21,1 20,6 0 0 N 1021,1 16 -
15.09.2019 06:00:00 21,1 20,0 5 3 NNE 1020,9 16 -
15.09.2019 05:00:00 21,1 20,0 9 5 NNE 1020,7 16 -
15.09.2019 04:00:00 21,7 20,0 0 0 N 1020,9 16 -
15.09.2019 03:00:00 21,1 20,0 8 4 NNE 1021,5 16 -
15.09.2019 02:00:00 21,7 19,4 11 6 NNE 1021,9 16 -
15.09.2019 01:00:00 21,7 19,4 9 5 NE 1022,1 16 -
15.09.2019 00:00:00 21,7 19,4 5 3 NE 1022,2 16 -
14.09.2019 23:00:00 21,7 19,4 8 4 NE 1022,5 16 -
14.09.2019 22:00:00 21,7 20,0 8 4 NE 1022,9 16 -
14.09.2019 21:00:00 22,2 20,0 15 8 E 1022,4 16 0,0
14.09.2019 20:00:00 23,3 20,6 15 8 ENE 1022,2 16 0,0
14.09.2019 19:00:00 25,6 21,1 9 5 NNE 1021,9 16 -
14.09.2019 18:00:00 27,2 18,3 15 8 N 1021,8 16 -
14.09.2019 17:00:00 30,0 20,6 9 5 NNE 1021,8 16 -
14.09.2019 16:00:00 28,9 20,6 11 6 SE 1021,8 16 -
14.09.2019 15:00:00 28,9 21,7 13 7 ESE 1022,6 16 -
14.09.2019 14:00:00 26,7 22,2 11 6 SE 1024,0 16 -
14.09.2019 13:00:00 25,6 22,2 11 6 E 1024,6 15 -
14.09.2019 12:00:00 25,0 22,2 11 6 ENE 1025,0 16 -
14.09.2019 11:00:00 23,9 22,2 13 7 E 1025,2 13 -
14.09.2019 10:00:00 22,8 22,2 15 8 E 1025,4 10 -
14.09.2019 09:00:00 22,2 22,2 11 6 ENE 1024,5 8 -
14.09.2019 08:00:00 21,7 21,7 13 7 ENE 1024,0 8 -
14.09.2019 07:00:00 21,7 21,7 9 5 ENE 1023,5 11 -
14.09.2019 06:00:00 21,7 21,7 11 6 ENE 1023,0 13 -
14.09.2019 05:00:00 21,7 21,7 11 6 ENE 1022,5 15 -
14.09.2019 04:00:00 21,7 21,7 8 4 NE 1022,5 15 -
14.09.2019 03:00:00 21,7 21,7 18 10 ENE 1022,7 13 -
14.09.2019 02:00:00 22,2 22,2 15 8 ENE 1023,5 13 -
14.09.2019 01:00:00 22,2 22,2 16 9 NE 1023,9 13 0,0
14.09.2019 00:00:00 22,2 22,2 9 5 ENE 1023,9 15 0,0
13.09.2019 23:00:00 21,7 21,7 15 8 E 1024,2 16 0,0
13.09.2019 22:00:00 21,7 21,7 22 12 E 1024,0 4,8 6,6
13.09.2019 21:00:00 25,6 20,6 16 9 E 1022,0 16 -
13.09.2019 20:00:00 25,0 21,7 5 3 SE 1021,1 16 -
13.09.2019 19:00:00 27,2 21,7 8 4 ESE 1020,3 16 4,6
13.09.2019 18:00:00 26,7 21,7 15 8 E 1019,6 3,2 3,3
13.09.2019 17:00:00 33,3 18,9 0 0 N 1019,2 16 -
13.09.2019 16:00:00 34,4 18,3 11 6 - 1019,6 16 -
13.09.2019 15:00:00 34,4 18,3 16 9 E 1020,5 16 -
13.09.2019 14:00:00 34,4 19,4 13 7 ESE 1021,2 16 -
13.09.2019 13:00:00 33,3 18,9 13 7 NE 1021,8 16 -
13.09.2019 12:00:00 32,2 18,3 8 4 N 1021,8 16 -
13.09.2019 11:00:00 30,0 19,4 8 4 - 1022,1 16 -
13.09.2019 10:00:00 28,3 18,9 0 0 N 1021,9 16 -
13.09.2019 09:00:00 26,1 19,4 0 0 N 1021,3 16 -
13.09.2019 08:00:00 22,8 20,0 0 0 N 1020,9 16 -
13.09.2019 07:00:00 22,8 20,0 0 0 N 1020,5 16 -
13.09.2019 06:00:00 22,8 21,1 5 3 N 1020,0 16 -
13.09.2019 05:00:00 23,3 21,7 8 4 NNW 1020,0 16 -
13.09.2019 04:00:00 23,3 18,9 0 0 N 1019,7 16 -
13.09.2019 03:00:00 24,4 18,9 0 0 N 1019,8 16 -
13.09.2019 02:00:00 25,0 18,9 0 0 N 1019,7 16 -
13.09.2019 01:00:00 23,9 18,3 0 0 N 1019,8 16 -
13.09.2019 00:00:00 26,7 18,3 5 3 NE 1019,4 16 -
12.09.2019 23:00:00 27,2 18,3 0 0 N 1019,3 16 -
12.09.2019 22:00:00 27,2 17,2 0 0 N 1019,4 16 -
12.09.2019 21:00:00 28,9 16,7 0 0 N 1019,2 16 -
12.09.2019 20:00:00 30,6 16,7 0 0 N 1018,7 16 -
12.09.2019 19:00:00 33,3 13,9 8 4 SSE 1018,4 16 -
12.09.2019 18:00:00 33,9 13,9 11 6 SE 1018,3 16 -
12.09.2019 17:00:00 34,4 15,0 11 6 ESE 1018,5 16 -
12.09.2019 16:00:00 35,0 15,0 13 7 ESE 1018,9 16 -
12.09.2019 15:00:00 34,4 16,7 16 9 SE 1019,4 16 -
12.09.2019 14:00:00 34,4 18,3 9 5 N 1020,3 16 -
12.09.2019 13:00:00 32,8 18,9 9 5 NNW 1021,0 16 -
12.09.2019 12:00:00 32,2 18,9 11 6 - 1021,5 16 -
12.09.2019 11:00:00 30,0 18,9 5 3 - 1022,0 16 -
12.09.2019 10:00:00 28,3 19,4 0 0 N 1021,8 16 -
12.09.2019 09:00:00 25,6 19,4 0 0 N 1021,7 16 -
12.09.2019 08:00:00 21,7 20,0 0 0 N 1021,5 16 -
12.09.2019 07:00:00 21,7 19,4 0 0 N 1020,9 16 -
12.09.2019 06:00:00 22,2 20,6 0 0 N 1020,3 16 -
12.09.2019 05:00:00 22,8 21,1 5 3 N 1020,1 16 -
12.09.2019 04:00:00 23,3 21,1 5 3 NNW 1020,1 16 -
12.09.2019 03:00:00 23,9 20,0 5 3 N 1020,3 16 -
12.09.2019 02:00:00 23,9 20,0 5 3 NNE 1020,7 16 -
12.09.2019 01:00:00 24,4 20,0 0 0 N 1020,9 16 -
12.09.2019 00:00:00 25,6 20,0 5 3 NE 1021,4 16 -
11.09.2019 23:00:00 26,1 20,0 8 4 NNE 1021,3 16 -
11.09.2019 22:00:00 26,7 18,9 0 0 N 1021,2 16 -
11.09.2019 21:00:00 28,9 18,3 5 3 S 1020,8 16 -
11.09.2019 20:00:00 30,0 16,7 0 0 N 1020,4 16 -
11.09.2019 19:00:00 32,2 16,7 9 5 W 1020,6 16 -
11.09.2019 18:00:00 33,3 16,1 9 5 WNW 1020,8 16 -
11.09.2019 17:00:00 33,3 16,7 5 3 - 1021,2 16 -
11.09.2019 16:00:00 32,8 17,8 11 6 NNE 1021,8 16 -
11.09.2019 15:00:00 32,8 18,9 - - - 1022,7 16 -
11.09.2019 14:00:00 31,7 20,0 11 6 WSW 1024,0 16 -
11.09.2019 13:00:00 30,0 20,6 8 4 N 1024,8 16 -
11.09.2019 12:00:00 28,3 20,6 - - - 1025,5 16 -
11.09.2019 11:00:00 28,3 20,6 5 3 W 1025,8 16 -
11.09.2019 10:00:00 26,1 20,6 0 0 N 1026,0 16 -
11.09.2019 09:00:00 - - - - - - - -
11.09.2019 08:00:00 22,8 20,0 5 3 E 1025,5 16 -
11.09.2019 07:00:00 21,7 20,0 0 0 N 1024,9 16 -
11.09.2019 06:00:00 21,7 19,4 0 0 N 1024,3 16 -
11.09.2019 05:00:00 22,2 19,4 0 0 N 1023,5 16 -
11.09.2019 04:00:00 22,2 19,4 0 0 N 1023,5 16 -
11.09.2019 03:00:00 23,9 19,4 5 3 NNE 1023,4 16 -
11.09.2019 02:00:00 23,9 19,4 8 4 ENE 1023,8 16 -
11.09.2019 01:00:00 24,4 19,4 9 5 N 1024,1 16 -
11.09.2019 00:00:00 24,4 19,4 8 4 NNW 1024,8 16 -
10.09.2019 23:00:00 23,9 19,4 5 3 NW 1024,5 16 -
10.09.2019 22:00:00 23,9 18,9 5 3 WNW 1024,3 16 -
10.09.2019 21:00:00 24,4 18,3 16 9 S 1023,9 16 -
10.09.2019 20:00:00 28,3 19,4 8 4 ESE 1023,2 16 -
10.09.2019 19:00:00 28,9 18,3 11 6 S 1022,3 16 -
10.09.2019 18:00:00 33,3 20,0 13 7 E 1022,1 16 -
10.09.2019 17:00:00 33,9 19,4 8 4 ESE 1022,1 16 -
10.09.2019 16:00:00 33,3 20,6 16 9 E 1022,6 16 -
10.09.2019 15:00:00 31,7 21,1 9 5 SE 1023,4 16 -
10.09.2019 14:00:00 33,3 21,1 8 4 - 1024,0 16 -
10.09.2019 13:00:00 31,7 21,1 9 5 SE 1024,5 16 -
10.09.2019 12:00:00 31,1 21,1 8 4 - 1024,7 16 -
10.09.2019 11:00:00 28,9 20,6 9 5 E 1024,9 16 -

tt = temperature
td = dewpoint
ff = wind speed
dd = wind direction
ppp = reduced air pressure
vv = visibility
rr = precipitation

Next stations